Probability
11 13 19 24 22 14 7 4 4 5 6 6 6 6 3 1 0 0 0 1 2 2 2 3 3 3 3 4 4 2 2 3 3 3 1 0 1 2 2 3 2 1 0
13 15 19 23 22 15 8 5 6 7 8 8 8 6 3 1 0 0 1 1 1 1 2 3 4 4 4 4 5 5 4 3 3 3 2 1 1 1 2 2 2 1 0
14 15 19 22 22 18 11 8 9 11 11 11 11 8 4 1 1 1 2 2 2 1 2 3 5 5 5 6 6 6 5 4 3 3 3 3 2 2 2 2 1 1 0
12 15 19 21 23 22 17 14 14 15 15 14 14 11 6 3 2 3 3 3 3 2 2 4 6 5 5 6 6 6 6 5 4 3 3 3 3 3 3 2 1 0 0
10 13 16 19 23 25 24 21 19 18 17 16 16 13 9 5 3 3 3 3 3 3 4 6 7 6 5 5 5 6 6 5 4 3 3 3 3 3 3 2 1 0 0
8 10 13 18 23 28 29 27 24 23 21 19 18 16 11 7 5 4 4 4 4 4 5 6 6 6 5 4 4 4 4 5 4 4 4 3 3 3 3 3 1 0 0
8 9 14 20 24 28 30 29 26 26 25 24 22 19 15 11 8 7 6 6 5 5 5 5 5 5 4 4 3 3 3 4 4 4 4 4 4 4 4 2 1 0 0
8 11 17 22 24 25 27 26 25 26 26 25 24 22 18 14 11 10 8 7 7 8 8 7 6 6 5 4 3 3 3 3 4 4 4 5 5 5 4 2 0 0 0
8 13 19 22 22 22 22 21 22 24 25 24 25 23 19 16 14 13 11 8 9 11 11 9 9 7 6 5 3 2 2 3 3 4 4 4 4 4 4 2 1 0 0
8 12 16 18 20 20 19 18 18 19 20 22 24 22 18 16 17 17 15 11 10 11 11 10 9 7 5 5 4 3 3 3 3 3 4 3 3 3 3 3 2 1 0
7 10 12 13 14 15 15 15 16 17 17 19 20 19 18 18 19 19 17 12 11 11 12 11 9 7 6 6 6 5 4 3 3 3 3 3 3 3 3 3 3 2 1
6 7 8 8 9 11 12 13 16 18 19 18 18 17 19 20 21 20 16 13 12 13 14 12 10 9 9 8 8 8 6 5 4 3 3 3 4 4 4 3 3 2 1
5 6 6 6 8 9 11 13 16 18 18 18 17 17 18 20 20 19 17 16 15 15 14 12 11 11 11 10 10 9 9 7 5 4 3 4 5 4 4 2 1 1 0
7 7 7 7 8 9 11 13 15 15 15 16 17 17 17 18 19 19 19 19 19 16 14 12 11 12 12 12 10 10 10 9 7 6 5 5 5 5 3 2 2 2 2
10 9 9 9 9 9 10 12 13 11 11 13 16 16 17 17 17 17 19 20 20 18 15 13 11 11 12 11 11 10 10 10 9 8 7 6 5 5 4 2 3 5 6
10 10 9 9 10 10 10 10 11 9 7 9 12 14 16 17 16 16 18 20 20 18 15 13 12 11 10 9 9 10 11 10 10 9 8 6 6 6 4 3 4 6 6
10 9 8 8 9 9 9 9 10 8 6 5 8 12 16 18 17 16 17 18 18 16 15 14 14 13 10 7 7 8 10 10 10 9 8 8 8 7 7 5 4 4 4
9 8 8 7 7 7 7 8 8 8 6 6 8 11 15 17 17 16 16 15 15 15 15 14 14 14 12 7 5 6 8 10 10 9 9 10 9 9 8 7 5 3 3
7 7 7 7 6 5 6 6 6 6 7 7 9 11 14 16 16 15 14 12 11 13 13 13 13 14 13 8 4 5 8 10 9 9 9 9 9 8 6 5 5 4 3
5 6 6 6 6 6 5 5 5 5 6 7 8 10 12 14 14 12 11 10 10 11 12 13 13 13 12 8 4 3 7 9 9 8 7 7 6 6 4 4 4 3 3
5 6 6 6 6 6 6 6 5 6 6 7 8 10 11 12 12 10 10 10 10 11 12 13 12 11 10 7 2 2 5 8 9 7 5 4 4 4 3 3 3 3 3
6 6 5 4 4 4 5 6 7 8 7 7 8 9 10 11 11 10 10 10 10 11 12 12 12 10 9 5 2 0 2 5 7 6 4 3 3 3 2 2 3 3 3
6 5 3 2 1 1 3 5 7 9 8 7 9 10 10 10 10 10 10 10 10 10 12 13 12 10 8 5 2 0 0 2 4 4 3 2 2 1 1 1 1 2 3
6 4 2 1 0 0 2 4 7 9 8 9 10 10 10 9 9 9 9 9 9 10 12 13 12 11 8 5 2 0 0 0 1 1 1 1 1 1 1 2 1 2 3
5 3 2 1 0 1 2 3 6 8 10 10 9 9 9 8 8 7 7 7 7 7 9 10 10 10 7 3 1 0 0 0 0 0 0 1 2 2 3 3 3 3 3
4 3 2 1 0 1 2 3 5 9 11 10 9 8 8 7 7 6 6 6 6 5 6 7 8 7 4 1 0 0 0 0 0 0 0 1 2 3 3 3 3 3 3
Wind_Speed
6 7 8 9 8 7 7 6 6 4 4 2 2 2 1 1 0 0 0 0 0 1 1 1 1 1 2 2 1 2 2 1 1 2 2 2 2 1 0 1 1 2 2
5 7 8 7 8 8 7 7 6 5 4 3 3 2 2 1 1 1 0 0 1 0 1 1 1 1 1 1 1 2 1 1 1 2 2 1 3 2 1 0 1 2 2
10 9 8 7 8 8 8 7 6 6 5 4 2 2 1 1 0 0 0 1 1 1 1 2 2 1 1 1 1 2 2 1 0 1 3 3 2 1 2 0 1 1 1
8 8 8 8 8 8 8 7 7 6 5 4 4 4 3 2 3 2 2 1 1 1 1 2 2 2 1 1 2 2 2 2 1 1 0 2 3 2 0 1 1 1 1
9 9 9 9 8 7 7 7 6 5 5 5 5 5 3 3 1 1 1 1 1 2 2 2 2 2 1 1 1 1 2 2 2 1 1 1 1 2 2 1 1 1 0
8 7 7 6 6 5 6 6 6 5 5 5 4 5 4 3 2 2 2 2 1 2 2 2 2 2 2 2 1 1 2 1 2 1 2 2 2 1 2 2 1 1 1
6 6 6 6 5 6 6 6 6 5 5 5 4 5 4 4 4 4 3 2 2 2 2 2 2 2 2 2 1 1 1 2 2 2 1 1 1 2 2 3 2 1 1
5 5 5 5 5 5 6 6 6 5 5 5 5 4 4 3 3 3 3 3 3 3 3 2 3 2 2 2 2 1 1 1 2 2 1 1 0 1 2 2 3 1 1
4 4 4 4 5 4 4 4 5 5 4 4 4 3 3 3 3 3 2 2 2 2 2 2 2 2 2 2 2 1 1 1 1 1 1 1 0 1 1 2 3 3 2
5 5 4 3 3 3 3 4 3 4 3 3 3 3 2 2 2 2 2 2 2 2 3 3 2 2 2 2 2 1 1 1 1 1 1 1 1 1 1 1 1 2 3
5 5 4 3 3 3 2 2 3 3 3 3 2 2 2 2 1 1 2 2 2 2 3 3 3 3 2 2 2 2 1 1 0 1 1 1 1 1 1 1 1 1 2
4 5 5 4 4 3 2 2 3 3 3 3 3 2 2 2 2 2 2 1 2 2 4 3 3 3 3 2 3 2 2 2 2 1 1 1 1 1 1 1 1 1 1
4 4 4 4 4 4 3 2 2 2 3 3 3 2 2 1 2 2 2 1 1 2 2 3 3 3 3 3 3 3 3 2 2 2 2 2 1 1 0 1 1 1 1
4 4 3 2 2 2 3 2 1 1 2 2 3 3 3 3 3 3 2 2 2 2 2 2 3 3 3 3 3 3 2 2 2 2 2 2 2 2 2 1 1 1 0
4 4 3 2 1 1 1 2 1 1 2 2 2 2 2 2 2 2 2 2 2 2 2 2 2 2 2 2 3 3 3 3 2 1 1 1 2 3 2 2 2 2 1
4 3 3 2 2 1 1 2 2 2 2 2 2 1 1 1 1 1 2 2 2 2 1 2 2 1 1 2 3 3 3 3 3 2 1 1 1 1 2 2 3 3 3
4 3 3 2 1 1 1 2 2 2 2 2 2 2 2 1 1 1 1 1 2 2 2 2 2 1 1 2 3 3 3 3 3 3 2 1 1 1 1 1 1 0 1
3 2 1 1 1 1 1 1 2 2 2 2 1 1 2 2 1 1 1 1 1 2 2 2 2 2 1 2 2 3 2 2 2 3 3 3 2 1 2 2 1 1 1
3 3 2 2 1 1 1 2 2 2 2 2 2 2 2 2 2 2 2 2 2 1 2 2 2 2 2 2 2 3 2 2 2 2 2 3 3 2 4 3 1 0 2
3 2 2 2 2 1 2 3 2 2 1 2 2 2 2 2 2 2 2 1 1 2 2 2 2 2 2 2 2 3 2 2 2 1 1 3 3 3 5 3 2 1 2
3 3 3 2 1 1 2 2 1 1 2 1 1 1 2 2 2 2 1 1 1 1 1 1 2 2 3 2 3 4 3 3 2 2 2 2 4 4 5 4 3 4 3
3 3 2 1 0 1 2 1 1 2 1 1 1 1 1 2 1 1 1 1 1 1 1 1 1 2 2 2 3 4 4 4 3 3 3 3 4 4 4 4 4 3 2
3 2 2 1 1 1 1 1 2 1 1 1 1 1 1 1 1 2 2 1 1 2 2 2 2 2 2 1 3 4 3 3 3 3 3 3 3 3 3 3 3 2 1
3 2 2 1 1 2 1 2 2 1 2 2 1 1 1 1 0 0 1 1 2 2 2 3 3 2 2 2 1 1 2 2 2 1 2 2 2 1 1 1 1 2 2
3 3 3 3 3 2 2 2 1 1 2 1 2 1 1 1 1 1 1 2 3 3 4 3 3 3 3 4 4 3 2 2 2 1 0 0 0 0 1 1 1 2 2
2 2 2 2 2 2 2 2 2 2 2 1 1 2 1 1 1 1 1 3 1 2 3 3 3 3 4 4 4 4 4 3 3 2 1 2 2 2 2 2 2 2 2
Wind_Direction
172 155 153 153 148 139 137 139 140 144 135 127 131 132 154 171 163 190 149 144 138 146 136 132 126 130 141 164 153 127 110 108 109 80 31 4 12 14 192 162 151 167 186
148 154 154 154 156 151 150 151 155 158 161 166 170 171 171 188 199 222 173 197 159 180 164 155 149 141 135 128 130 128 132 174 138 130 108 18 358 346 342 142 163 182 171
162 158 158 159 161 162 165 166 169 167 170 163 140 120 80 53 25 326 267 254 188 170 175 163 164 167 158 177 186 163 158 181 246 150 145 151 202 282 337 327 164 159 154
163 165 167 167 175 178 170 166 167 168 171 160 159 157 161 186 210 212 222 242 225 210 188 176 170 174 167 188 209 172 168 159 200 289 139 156 156 153 171 344 5 104 146
173 176 174 173 177 176 171 168 165 170 175 173 175 173 182 199 200 195 197 228 246 235 210 181 174 176 180 186 177 146 153 163 169 159 132 88 78 111 140 194 328 358 305
179 178 167 152 156 161 163 163 164 176 179 177 178 178 180 180 166 183 198 221 241 247 239 182 173 185 189 186 180 167 153 163 145 130 123 137 145 164 150 163 194 268 294
164 160 157 155 160 160 164 172 172 178 183 179 182 185 183 178 183 191 197 202 222 236 234 197 184 195 198 183 162 150 157 152 138 143 148 152 167 158 148 145 166 200 291
139 146 152 152 158 166 170 177 177 178 181 183 190 187 180 181 196 196 193 202 216 226 215 188 184 183 175 166 146 140 154 130 138 148 155 136 154 136 144 154 151 128 340
133 125 122 139 147 151 161 173 180 175 183 190 190 188 185 183 193 197 192 203 217 213 179 172 171 170 157 156 153 153 171 135 155 168 164 159 178 141 153 149 152 151 167
115 112 123 142 146 149 145 149 159 177 183 185 187 177 183 195 197 188 194 198 204 187 150 153 154 149 143 144 142 150 172 155 207 186 151 178 207 143 143 154 153 149 158
142 142 137 141 129 110 117 148 175 173 168 177 185 171 177 179 167 185 217 209 190 169 160 160 156 159 163 161 151 162 147 152 225 229 177 220 203 161 173 157 145 147 146
144 148 139 130 127 139 155 160 181 177 181 179 174 182 176 168 180 205 231 218 188 172 168 161 159 168 168 169 169 179 177 176 200 236 210 235 207 182 174 149 156 176 173
114 120 122 125 136 145 154 158 167 180 176 161 160 163 165 180 200 210 219 202 182 161 153 155 167 176 180 183 190 187 186 192 205 214 216 222 166 171 195 161 175 203 182
109 106 107 115 127 141 154 154 160 173 160 153 153 167 191 202 209 209 192 164 164 175 169 165 174 184 187 190 196 188 189 192 199 209 207 204 186 193 195 191 202 165 113
109 116 121 122 114 106 124 124 122 128 141 138 147 182 202 203 203 202 187 159 164 187 181 165 174 193 192 204 195 193 190 190 196 204 202 204 183 180 188 189 191 168 166
124 123 114 111 121 129 150 128 123 137 128 129 162 177 161 162 180 188 163 145 159 185 161 173 174 185 229 213 188 182 187 186 185 187 201 206 192 173 176 178 172 172 176
132 133 138 142 151 152 144 144 139 122 117 126 139 140 141 142 171 168 137 152 185 190 181 182 160 191 228 182 175 179 179 179 187 190 190 199 206 178 164 137 104 81 179
138 138 125 134 140 109 81 104 112 116 130 143 142 138 138 146 149 132 138 161 168 165 183 193 185 186 234 200 168 156 167 174 190 194 188 182 202 192 145 128 94 347 306
149 150 148 145 123 110 111 103 106 127 134 156 174 182 163 156 149 154 175 183 177 198 209 204 195 196 243 230 188 161 163 172 203 209 194 185 188 190 150 139 145 310 313
129 127 115 97 88 89 121 111 117 119 162 199 196 182 165 157 165 174 191 201 185 206 212 217 212 204 229 236 205 171 164 175 215 235 230 205 192 189 167 159 161 201 261
138 129 120 117 136 103 100 109 125 191 216 204 179 176 166 161 174 175 180 174 177 175 202 229 241 226 225 218 202 186 178 189 196 214 236 233 203 197 190 184 187 213 219
133 130 128 133 201 119 111 114 250 244 204 149 156 191 193 192 182 174 202 202 178 191 221 229 267 261 235 209 212 202 198 189 182 211 224 220 212 214 205 202 211 218 202
153 154 154 163 248 238 148 180 256 238 170 157 192 208 208 202 202 195 207 215 206 208 218 211 227 257 256 232 220 222 218 204 195 213 220 220 215 214 209 217 217 200 170
165 166 158 177 242 257 223 216 241 208 154 174 215 218 196 220 236 221 207 199 209 215 215 209 219 237 245 235 220 222 225 230 227 237 249 250 229 213 228 226 226 207 192
175 171 177 198 232 247 250 246 219 163 154 184 211 226 206 198 203 251 245 233 228 212 205 213 211 209 230 239 218 195 198 206 214 183 101 8 310 279 275 248 234 227 210
178 181 191 202 229 230 241 242 214 170 159 190 224 230 219 202 196 188 326 351 336 279 238 219 206 221 224 209 200 211 211 202 181 152 173 207 216 222 229 230 236 228 220